Regional Weather Roundup
Issued by NWS

Home | Current Version | Previous Version | Graphics & Text | Print | Product List | Glossary On
Versions: 1 2 3 4 5 6 7 8 9 10 11 12 13 14 15 16 17 18 19 20 21 22 23 24 25 26 27 28 29 30 31 32 33 34 35 36 37 38 39 40 41 42 43 44 45 46 47 48 49 50
000
ASUS43 KIND 251859
RWRIN

WEATHER ROUNDUP FOR INDIANA
NATIONAL WEATHER SERVICE INDIANAPOLIS IN
300 PM EDT MON JUL 25 2016

NOTE: "FAIR" INDICATES FEW OR NO CLOUDS BELOW 12,000 FEET WITH NO
SIGNIFICANT WEATHER AND/OR OBSTRUCTIONS TO VISIBILITY.

* - STATION DOES NOT REPORT WEATHER SUCH AS PRECIPITATION OR FOG.

+ - STATION NOT QUALITY CONTROLLED BY THE NATIONAL WEATHER SERVICE.
    USE DATA WITH CAUTION...ESPECIALLY DEWPOINT AND RELATIVE
    HUMIDITY OBSERVATIONS.

INZ001>003-010>013-019-020-252000-
NORTHWEST INDIANA

CITY           SKY/WX    TMP DP  RH WIND       PRES   REMARKS
GARY /AIRPORT/ MOSUNNY   82 N/A N/A NE6       30.03S
KNOX *+        CLOUDY    82  55  39 CALM      30.02S
MONTICELLO +   CLOUDY    82  69  65 NW6       30.01F

$$

LMZ046-743>745-252000-
SOUTHERN LAKE MICHIGAN

STATION/POSITION TIME  TEMP    WIND        PRES    WAVE
                       AIR SEA DIR/SP/G            HT
                 (UTC) (F)     (DEG/KT/KT) (MB)    (FT)
BURNS HARBOR     1800   75      20/  4/  6 1017.3R
MICHIGAN CITY    1800   78     310/  2/  3   N/A
5NW MICH CITY    1800   75 75  310/  2/  4   N/A     1

$$

INZ004-005-014>016-021>024-252000-
NORTH CENTRAL INDIANA

CITY           SKY/WX    TMP DP  RH WIND       PRES   REMARKS
ELKHART        MOSUNNY   84  68  58 W9        30.01S
GOSHEN         CLOUDY    86  61  42 W10       30.00S
SOUTH BEND     CLOUDY    82  67  60 NW12      30.02S
WARSAW +       CLOUDY    82  70  65 W6        30.01S

$$

INZ006>009-017-018-025>027-252000-
NORTHEAST INDIANA

CITY           SKY/WX    TMP DP  RH WIND       PRES   REMARKS
ANGOLA *+        N/A     84  81  89 W9        29.99F HX  98
FORT WAYNE     PTSUNNY   86  71  60 W7        30.00F

$$

INZ028-029-035-036-043>045-051>053-252000-
WEST CENTRAL INDIANA

CITY           SKY/WX    TMP DP  RH WIND       PRES   REMARKS
CRAWFORDSVL +  PTSUNNY   84  75  73 W7        30.02F
LAFAYETTE      PTSUNNY   83  73  72 NW10      30.00F
TERRE HAUTE    MOSUNNY   86  71  60 NW7       30.01F

$$

INZ030>032-037>040-046>048-054>057-064-065-252000-
CENTRAL INDIANA

CITY           SKY/WX    TMP DP  RH WIND       PRES   REMARKS
COLUMBUS       MOSUNNY   86  75  70 N8        30.00F HX  95
INDIANAPOLIS   PTSUNNY   87  69  54 W8        30.01F
-EAGLE CREEK   MOSUNNY   87  71  58 NW7       30.00F
KOKOMO *+      PTSUNNY   86  70  58 N9        30.00F
MT COMFORT *+  MOSUNNY   86  70  58 NW5       30.01F
SHELBYVILLE    MOSUNNY   90  68  48 CALM      30.00F
ZIONSVILLE +   CLOUDY    82  73  73 W3        30.02F

$$

INZ033-034-041-042-049-050-058-059-252000-
EAST CENTRAL INDIANA

CITY           SKY/WX    TMP DP  RH WIND       PRES   REMARKS
MUNCIE         PTSUNNY   86  72  62 W10       30.00F

$$

INZ060-061-067>069-081>083-085>088-252000-
SOUTHWEST INDIANA

CITY           SKY/WX    TMP DP  RH WIND       PRES   REMARKS
EVANSVILLE     TSTM      78  71  79 W17G23    30.01R VSB 1/2
HUNTINGBURG *+ CLOUDY    75  70  83 E7        30.00F
WASHINGTON +   CLOUDY    88  77  69 MISG      29.98F HX 100

$$

INZ062-063-066-070>080-084-089>092-252000-
SOUTH CENTRAL AND SOUTHEAST INDIANA

CITY           SKY/WX    TMP DP  RH WIND       PRES   REMARKS
BLOOMINGTON    MOSUNNY   88  72  58 N6        30.01F
MADISON *+     CLOUDY    90  70  51 NW6       30.02R HX  95

$$





USA.gov is the U.S. government's official web portal to all federal, state and local government web resources and services.